Regional Weather Roundup
Issued by NWS

Home | Current Version | Previous Version | Graphics & Text | Print | Product List | Glossary On
Versions: 1 2 3 4 5 6 7 8 9 10 11 12 13 14 15 16 17 18 19 20 21 22 23 24 25 26 27 28 29 30 31 32 33 34 35 36 37 38 39 40 41 42 43 44 45 46 47 48 49 50
000
ASUS45 KTFX 021310
RWRMT
MONTANA REGIONAL WEATHER ROUNDUP
NATIONAL WEATHER SERVICE GREAT FALLS MT
700 AM MDT WED SEP 02 2015

NOTE: "FAIR" INDICATES FEW OR NO CLOUDS BELOW 12000 FEET WITH NO
SIGNIFICANT WEATHER AND/OR OBSTRUCTIONS TO VISIBILITY.

MTZ001>007-043-021400-
WEST OF THE DIVIDE

CITY           SKY/WX    TMP DP  RH WIND       PRES   REMARKS
KALISPELL      CLOUDY    52  39  61 CALM      29.75R
MISSOULA       MOCLDY    51  39  63 CALM      29.79R
BUTTE          MOCLDY    43  34  70 S3        29.88S
MULLAN PASS    MOCLDY    46  37  71 VRB3      29.88R
DEER LODGE       N/A     43  36  75 CALM      29.84F
EUREKA           N/A     54  39  58 CALM      29.74R
HAMILTON         N/A     52  39  62 E6        29.78R
LIBBY            N/A     48  39  71 E3        29.76R
$$

MTZ008-052>055-021400-
SOUTHWEST MONTANA

CITY           SKY/WX    TMP DP  RH WIND       PRES   REMARKS
BOZEMAN        CLEAR     48  37  65 SE8       29.81S
DILLON         PTCLDY    57  27  31 S6        29.85R
W YELLOWSTONE  CLEAR     36  36 100 CALM      30.04S
$$

MTZ009-010-012-014-046-048-049-054-021400-
EAST SLOPES AND CENTRAL MONTANA

CITY           SKY/WX    TMP DP  RH WIND       PRES   REMARKS
CUT BANK       CLOUDY    56  30  37 W10       29.71S
GREAT FALLS    PTCLDY    53  32  44 CALM      29.71F
MALMSTROM AFB  CLEAR     50  34  55 S7        29.72S
HELENA         PTCLDY    52  36  54 CALM      29.78R
CONRAD           N/A     46  36  68 CALM      29.76S
$$

MTZ011-013-016-021-045-047-050-051-021400-
NORTH CENTRAL MONTANA

CITY           SKY/WX    TMP DP  RH WIND       PRES   REMARKS
HAVRE          MOCLDY    48  37  65 SW12      29.67R
LEWISTOWN      MOCLDY    58  36  43 E5        29.77R
N BAR RANCH      N/A     61  34  36 W7        29.81S
CHINOOK          N/A     48  39  71 E3        29.65S
FORT BENTON      N/A     50  34  53 W5        29.70S
$$

MTZ017>020-022>027-061-062-021400-
NORTHEAST MONTANA

CITY           SKY/WX    TMP DP  RH WIND       PRES   REMARKS
GLASGOW        CLEAR     62  40  44 E17       29.67S
JORDAN           N/A     48  35  60 CALM      29.70R
SIDNEY         CLEAR     54  43  66 NW5       29.74F
WOLF POINT     PTCLDY    51  43  74 E6        29.72S
PLENTYWOOD       N/A     63  46  55 NE6       29.76S
POPLAR           N/A     55  45  67 NE8       29.73R
$$

MTZ028>42-056>058-021400-
SOUTHCENTRAL AND SOUTHEAST MONTANA

CITY           SKY/WX    TMP DP  RH WIND       PRES   REMARKS
BAKER          PTCLDY    59  53  80 SE8       29.81R
BILLINGS       PTCLDY    68  31  25 SW12      29.77F
LIVINGSTON     CLEAR     55  31  39 VRB3      29.81S
MILES CITY     PTCLDY    61  46  57 SE10      29.74R
EKALAKA          N/A     69  43  39 SE9       29.82
FORSYTH          N/A     57  37  47 CALM      29.73R
LAUREL           N/A     65  33  30 SW3       29.78F
$$

REGIONAL REPORTS...DAKOTAS

CITY           SKY/WX    TMP DP  RH WIND       PRES   REMARKS
WILLISTON      CLEAR     59  48  67 N5        29.77S
MINOT          PTCLDY    62  60  93 SW5       29.80R FOG
DICKINSON      PTCLDY    59  55  87 SE7       29.80R
BISMARCK       FOG       63  62  97 E3        29.81R VSB 1/2
GRAND FORKS    FOG       68  67  96 S8        29.83R VSB 1
FARGO          SUNNY     69  63  81 SE12      29.85R
BUFFALO SD       N/A     62  54  74 E7        29.77R
RAPID CITY     MOCLDY    61  52  72 NW3       29.85R
$$

REGIONAL REPORTS...WYOMING/IDAHO/WASHINGTON

CITY           SKY/WX    TMP DP  RH WIND       PRES   REMARKS
GILLETTE       PTCLDY    71  41  33 SW21      29.90R
SHERIDAN       CLEAR     65  38  36 CALM      29.85R
BUFFALO WY     CLEAR     70  35  27 SW8       29.95R
CODY           MOCLDY    61  34  36 SE3       29.93S
YELLOWSTONE LA   N/A     37  36  96 NW3       30.14S
IDAHO FALLS    PTCLDY    65  39  38 S10       29.94R
SALMON         MOCLDY    46  34  61 CALM      29.83R
BOISE          PTCLDY    63  38  39 SE3       29.85R
SPOKANE        CLOUDY    58  47  66 S12       29.77R
$$

REGIONAL REPORTS...ALBERTA

CITY           SKY/WX    TMP DP  RH WIND       PRES   REMARKS
EDMONTON       CLEAR     50  41  71 NE12      29.57F
CALGARY        PTCLDY    50  37  62 SW7       29.59F
LETHBRIDGE     MOCLDY    48  34  57 CALM      29.66R
MEDICINE HAT   CLOUDY    54  39  58 E5        29.63F
WATERTON GATE    N/A     59  28  31 SW12G20     N/A
CARDSTON         N/A     54  30  40 SW8         N/A
MILK RIVER       N/A     55  32  41 SW5         N/A
$$

REGIONAL REPORTS...SASKATCHEWAN

CITY           SKY/WX    TMP DP  RH WIND       PRES   REMARKS
SWIFT CURRENT  CLOUDY    64  37  36 S12       29.68F
REGINA         PTCLDY    52  45  76 SE12      29.76R
SASKATOON      MOCLDY    57  46  67 E9        29.70F
CYPRESS HILLS    N/A     57  27  30 SE5         N/A
VAL MARIE        N/A     55  43  62 E6          N/A
ROCKGLEN         N/A     57  41  54 E10         N/A
ASSINIBOIA       N/A     52  41  66 E9          N/A
$$



USA.gov is the U.S. government's official web portal to all federal, state and local government web resources and services.